Find Starlink 4489

NORAD ID: 53542 Int'l Des: 2022-101 Owner: SPXS Country: US Constellation: starlink operational
LEOCIRCULAR

リアルタイム位置

3D地球を読み込み中...

Starlink 4489について

説明を読み込み中...

次回通過

Passes for default location (London). Set your location on the main map for personalized predictions.

高度履歴

Loading altitude history...

軌道要素

1 53542U 22101R 26123.41012661 .00000382 00000-0 42059-4 0 9997
2 53542 53.2165 178.4717 0001279 84.5824 275.5314 15.08839563205257
Epoch: May 3, 2026 • Age: 9 hours

現在のステータス

高度 555.6 km
速度 7.58 km/s
衛星直下点 -44.70°S, 19.01°W
打ち上げ日 Aug 19, 2022
運用期間 3.7 years
タイプ internet

技術仕様

分類 Payload
質量 300.00 kg
乾燥質量 290.00 kg
総質量 300.00 kg
長さ 0.20 m
直径 2.80 m
スパン 9.00 m
形状 Box + pan
製造者 SPXS
バスタイプ Starlink
フェーズステータス In Orbit
所有者/国 SPXS/US

Most Searched